Hourly Data Report for October 23, 2014

All times are specified in Local Standard Time (LST). Add 1 hour to adjust for Daylight Saving Time where and when it is observed.

KUGAARUK CLIMATE
NUNAVUT

68°32'15.060" N
89°47'47.020" W
15.80 m
2303094
71407
NBB

Download Data

Hourly Data (October 2014)
Hourly Data Report for October 23, 2014
Temp Definition
°C
Dew Point Temp Definition
°C
Rel Hum Definition
%
Wind Dir Definition
10's deg

Wind Spd Definition
km/h
Visibility Definition
km
Stn Press Definition
kPa
Hmdx Definition


Wind Chill Definition


Weather Definition


TIME
00:00 -20.3 -23.1 78 25 18   102.24   -30 LegendNANA
01:00 -21.4 -24.1 78 22 22   102.29   -33 LegendNANA
02:00 -21.1 -24.3 76 22 27   102.31   -33 LegendNANA
03:00 -20.8 -23.9 76 24 28   102.32   -33 LegendNANA
04:00 -21.0 -24.3 75 24 27   102.36   -33 LegendNANA
05:00 -20.9 -24.2 75 24 24   102.40   -33 LegendNANA
06:00 -20.5 -23.4 78 24 28   102.40   -33 LegendNANA
07:00 -20.0 -22.8 78 23 32   102.41   -33 LegendNANA
08:00 -19.2 -22.3 77 23 22   102.41   -30 LegendNANA
09:00 -18.7 -22.0 75 22 18   102.44   -28 LegendNANA
10:00 -17.8 -21.1 76 23 21   102.50   -28 LegendNANA
11:00 -17.3 -20.6 76 23 26   102.51   -28 LegendNANA
12:00 -16.6 -19.7 77 24 26   102.52   -27 LegendNANA
13:00 -16.4 -19.9 74 22 23   102.58   -27 LegendNANA
14:00 -15.9 -19.0 77 22 25   102.57   -26 LegendNANA
15:00 -17.0 -19.9 78 25 25   102.61   -28 LegendNANA
16:00 -16.8 -19.6 79 22 24   102.66   -27 LegendNANA
17:00 -16.8 -19.1 82 24 24   102.63   -27 LegendNANA
18:00 -17.0 -19.6 80 22 20   102.64   -27 LegendNANA
19:00 -17.5 -20.0 81 22 13   102.64   -25 LegendNANA
20:00 -18.2 -20.3 84 23 18   102.63   -28 LegendNANA
21:00 -20.1 -22.4 82 25 6   102.62   -25 LegendNANA
22:00 -19.4 -21.7 82 24 31   102.62   -32 LegendNANA
23:00 -20.5 -22.8 82 25 25   102.64   -32 LegendNANA

Notes on Data Quality.

Legend

  • E = Estimated
  • M = Missing
  • NA = Not Available
  • ‡ = Partner data that is not subject to review by the National Climate Archives
Date modified: